sat.trackr.live / text

‹ back to catalog

STARLINK-31684

NORAD 59492 · 2024-071J

PAYLOAD ACTIVE UNKNOWN

§ Identity

Operator
Country
US
Launch date
2024-04-13
Launch site
AFETR
Launch vehicle
Mass (kg)
RCS (m²)

Purposes: comms

External: N2YO · Heavens-Above · Gunter

§ Orbital elements

Epoch: 2026-09-21T15:02:50.846496Z

Period
94.27 min
Inclination
43.0028°
Eccentricity
0.0001133
Mean motion
15.27578481 rev/d
Perigee alt
482.3 km
Apogee alt
483.8 km
Semi-major
6,861.2 km
B*
3.2542e-5
RAAN
320.8088°
Arg perigee
219.4929°
Mean anomaly
140.5841°
Rev number
13,808

§ Raw data

STARLINK-316841 59492U 24071J   26264.62697739  .00000633  00000+0  32542-4 0  99932 59492  43.0028 320.8088 0001133 219.4929 140.5841 15.27578481138082

JSON: /api/v1/satellites/59492 · /tle

For live sub-satellite position, see the globe view (requires WebGL).

§ Visibility from observer

Set your observer location to see the next 7 days of passes ≥ 10°. The values pass through the URL so the page stays shareable.

No JS? Fill the form by hand. The geolocation button needs JavaScript.